Flight Track Log - Related Links

Times and Time Zones

All times are in EDT time to prevent confusion due to time zone crossing. See the DAL3688 flight status page for this flight to view local times or setup timezone preferences in your user account.

Time Position Orientation Groundspeed Altitude Reporting Facility
EDT Latitude Longitude Course Direction KTS MPH feet Rate Location/Type
Thu 10:35:58 AM 42.2036 -83.3556 90° East 141 162 1,400  Level Cleveland Center
Thu 10:36:29 AM 42.1850 -83.3519 172° South 157 181 2,600 2,087 Climbing Cleveland Center
Thu 10:37:30 AM 42.1356 -83.3328 164° South 210 242 4,600 2,213 Climbing Cleveland Center
Thu 10:38:31 AM 42.0844 -83.2831 144° Southeast 304 350 7,100 2,368 Climbing Cleveland Center
Thu 10:39:00 AM 42.2167 -82.7628 90° East  Level FlightAware Approximate
Thu 10:40:00 AM 42.2167 -82.6150 90° East  Level FlightAware Approximate
Thu 10:40:02 AM 42.1158 -83.0942 77° East 332 382 10,600  Level Cleveland Center
Thu 10:41:00 AM 42.2167 -82.4673 90° East  Level FlightAware Approximate
Thu 10:41:02 AM 42.1397 -82.9550 77° East 352 405 12,900  Level Cleveland Center
Thu 10:42:02 AM 42.1611 -82.8186 78° East 371 427 14,800 1,550 Climbing Cleveland Center
Thu 10:43:02 AM 42.1869 -82.6681 77° East 387 445 16,000 1,350 Climbing Cleveland Center
Thu 10:44:02 AM 42.2125 -82.5119 77° East 408 470 17,500 1,600 Climbing Cleveland Center
Thu 10:45:02 AM 42.2172 -82.3522 88° East 419 482 19,200 1,650 Climbing Cleveland Center
Thu 10:46:02 AM 42.2072 -82.1922 95° East 419 482 20,800 1,350 Climbing Cleveland Center
Thu 10:47:02 AM 42.1947 -82.0350 96° East 424 488 21,900 1,050 Climbing Cleveland Center
Thu 10:48:02 AM 42.1525 -81.8939 112° Southeast 394 453 22,900 1,000 Climbing Cleveland Center
Thu 10:49:02 AM 42.0661 -81.7969 140° Southeast 394 453 23,900 1,000 Climbing Cleveland Center
Thu 10:50:02 AM 41.9817 -81.6947 138° Southeast 399 459 24,900 950 Climbing Cleveland Center
Thu 10:51:02 AM 41.8950 -81.6014 141° Southeast 406 467 25,800 700 Climbing Cleveland Center
Thu 10:52:02 AM 41.8167 -81.5108 139° Southeast 406 467 26,300 500 Climbing Cleveland Center
Thu 10:53:02 AM 41.7256 -81.4039 139° Southeast 419 482 26,800 500 Climbing Cleveland Center
Thu 10:54:02 AM 41.6347 -81.3028 140° Southeast 434 499 27,300 500 Climbing Cleveland Center
Thu 10:55:02 AM 41.5456 -81.1964 138° Southeast 434 499 27,800 500 Climbing Cleveland Center
Thu 10:56:02 AM 41.4692 -81.0486 125° Southeast 434 499 28,300 500 Climbing Cleveland Center
Thu 10:57:02 AM 41.4114 -80.8961 117° Southeast 440 506 28,800 350 Climbing Cleveland Center
Thu 10:58:02 AM 41.3533 -80.7464 117° Southeast 451 519 29,000 100 Climbing Cleveland Center
Thu 10:59:02 AM 41.2931 -80.5942 118° Southeast 456 525 29,000  Level Cleveland Center
Thu 11:00:02 AM 41.2344 -80.4394 117° Southeast 463 533 29,000  Level Cleveland Center
Thu 11:01:02 AM 41.1800 -80.3017 118° Southeast 463 533 29,000  Level Cleveland Center
Thu 11:02:02 AM 41.1192 -80.1475 118° Southeast 463 533 29,000  Level Cleveland Center
Thu 11:03:02 AM 41.0581 -79.9939 118° Southeast 468 539 29,000 -350 Level Cleveland Center
Thu 11:04:02 AM 40.9903 -79.8267 118° Southeast 468 539 28,300 -900 Descending Cleveland Center
Thu 11:05:02 AM 40.9286 -79.6761 118° Southeast 468 539 27,200 -1,050 Descending Cleveland Center
Thu 11:06:02 AM 40.8692 -79.5261 118° Southeast 468 539 26,200 -1,000 Descending Cleveland Center
Thu 11:07:02 AM 40.8092 -79.3817 119° Southeast 455 524 25,200 -1,000 Descending Cleveland Center
Thu 11:08:02 AM 40.7492 -79.2375 119° Southeast 455 524 24,200 -1,000 Descending Cleveland Center
Thu 11:09:02 AM 40.6892 -79.0936 119° Southeast 455 524 23,200 -1,000 Descending Cleveland Center
Thu 11:10:02 AM 40.6328 -78.9469 117° Southeast 455 524 22,200 -950 Descending Cleveland Center
Thu 11:11:02 AM 40.6058 -78.8083 104° East 443 510 21,300 -950 Descending Cleveland Center
Thu 11:12:02 AM 40.5803 -78.6475 102° East 443 510 20,300 -1,000 Descending Cleveland Center
Thu 11:13:02 AM 40.5525 -78.4872 103° East 443 510 19,300 -944 Descending Cleveland Center
Thu 11:15:00 AM 40.5014 -78.1958 103° East 419 482 17,500 -944 Descending New York Center
Thu 11:16:00 AM 40.4775 -78.0431 102° East 419 482 16,500 -1,017 Descending New York Center
Thu 11:16:58 AM 40.4508 -77.8956 103° East 419 482 15,500 -1,017 Descending New York Center
Thu 11:17:58 AM 40.4242 -77.7511 104° East 419 482 14,500 -992 Descending New York Center
Thu 11:18:59 AM 40.3972 -77.6064 104° East 414 476 13,500 -1,550 Descending New York Center
Thu 11:19:58 AM 40.3719 -77.4622 103° East 382 440 11,400 -1,765 Descending New York Center
Thu 11:20:58 AM 40.3544 -77.3653 103° East 329 379 10,000 -1,500 Descending New York Center
Thu 11:21:58 AM 40.3319 -77.2461 104° East 301 346 8,400 -1,488 Descending New York Center
Thu 11:22:59 AM 40.3161 -77.1547 103° East 296 341 7,000 -1,563 Descending New York Center
Thu 11:23:57 AM 40.2986 -77.0522 103° East 271 312 5,300 -1,664 Descending New York Center
Thu 11:24:58 AM 40.2756 -76.9739 111° Southeast 260 299 3,700 -1,082 Descending New York Center
Thu 11:25:59 AM 40.2486 -76.8900 113° Southeast 253 291 3,100 -590 Descending New York Center

Login

Don't have an account? Register now (free) for customized features, flight alerts, and more!